Volver al catálogo

SL-24 R/B

ActivoPO
NORAD 31699·ROCKET BODY·🇷🇺 Russia

Lanzado Jun 15, 2007 desde Baikonur Cosmodrome

Loading…

Próximos Pases (próximas 24 horas)

TLE

ActualizadoSource: Space-Track

Época: Sep 14, 2026, 20:21 UTC

1 31699U 07026B   26257.84847574  .00000737  00000-0  10939-3 0  9994
2 31699  97.4712 217.7683 0333751  78.5827 312.9442 14.46129096 12496

Sigue SL-24 R/B en tiempo real con AllMySat

Download on the App Store